When you browse on this site, cookies collect data to enhance your experience and personalize the content and advertising you see.
Visit our Privacy Policy to learn more. By continuing to use the site, you agree to this use of cookies and data.
  • In Österreich
  • Länderverzeichnis
  • Für 7 Tage
  • Wassertemperatur
  • Wetterkarte
  • News
  • Widgets
  • user-avatar
    Anmelden

    Stündliche Wetter Pachuquilla

    Heute, 22 November, Freitag

    Zeit Temperatur Niederschläge Wind Luftdruck Luftfeuchtigkeit
    00:00 +13°C° 0 mm 1 m/S 571 mmHg 67%
    01:00 +13°C° 0 mm 1 m/S 570 mmHg 66%
    02:00 +13°C° 0 mm 1 m/S 570 mmHg 66%
    03:00 +12°C° 0 mm 1 m/S 570 mmHg 66%
    04:00 +12°C° 0 mm 1 m/S 570 mmHg 67%
    05:00 +10°C° 0 mm 0 m/S 570 mmHg 67%
    06:00 +12°C° 0 mm 0 m/S 571 mmHg 60%
    07:00 +14°C° 0 mm 0 m/S 572 mmHg 53%
    08:00 +18°C° 0 mm 1 m/S 574 mmHg 46%
    09:00 +20°C° 0 mm 1 m/S 574 mmHg 39%
    10:00 +20°C° 0 mm 2 m/S 574 mmHg 33%
    11:00 +23°C° 0 mm 2 m/S 575 mmHg 26%
    12:00 +22°C° 0 mm 3 m/S 574 mmHg 26%
    13:00 +22°C° 0 mm 3 m/S 574 mmHg 26%
    14:00 +24°C° 0 mm 3 m/S 573 mmHg 26%
    15:00 +21°C° 0 mm 3 m/S 572 mmHg 34%
    16:00 +19°C° 0 mm 3 m/S 572 mmHg 42%
    17:00 +17°C° 0 mm 3 m/S 571 mmHg 50%
    18:00 +16°C° 0 mm 2 m/S 571 mmHg 53%
    19:00 +15°C° 0 mm 2 m/S 571 mmHg 55%
    20:00 +14°C° 0 mm 1 m/S 572 mmHg 57%
    21:00 +14°C° 0 mm 1 m/S 571 mmHg 55%
    22:00 +13°C° 0 mm 1 m/S 571 mmHg 52%
    23:00 +13°C° 0 mm 1 m/S 571 mmHg 50%

    Morgen, 23 November, Samstag

    Zeit Temperatur Niederschläge Wind Luftdruck Luftfeuchtigkeit
    00:00 +12°C° 0 mm 1 m/S 570 mmHg 50%
    01:00 +12°C° 0 mm 1 m/S 570 mmHg 50%
    02:00 +10°C° 0 mm 0 m/S 570 mmHg 51%
    03:00 +10°C° 0 mm 0 m/S 569 mmHg 51%
    04:00 +10°C° 0 mm 0 m/S 569 mmHg 51%
    05:00 +9°C° 0 mm 0 m/S 569 mmHg 52%
    06:00 +11°C° 0 mm 0 m/S 571 mmHg 46%
    07:00 +13°C° 0 mm 0 m/S 572 mmHg 41%
    08:00 +15°C° 0 mm 0 m/S 574 mmHg 36%
    09:00 +17°C° 0 mm 0 m/S 574 mmHg 32%
    10:00 +20°C° 0 mm 1 m/S 575 mmHg 28%
    11:00 +22°C° 0 mm 1 m/S 575 mmHg 25%
    12:00 +21°C° 0 mm 2 m/S 575 mmHg 26%
    13:00 +23°C° 0 mm 2 m/S 574 mmHg 28%
    14:00 +22°C° 0 mm 3 m/S 574 mmHg 30%
    15:00 +20°C° 0 mm 3 m/S 573 mmHg 44%
    16:00 +18°C° 0 mm 3 m/S 572 mmHg 58%
    17:00 +16°C° 0 mm 3 m/S 572 mmHg 72%
    18:00 +15°C° 0 mm 2 m/S 572 mmHg 77%
    19:00 +14°C° 0 mm 2 m/S 572 mmHg 83%
    20:00 +13°C° 0 mm 2 m/S 572 mmHg 89%
    21:00 +13°C° 0 mm 2 m/S 572 mmHg 87%
    22:00 +12°C° 0 mm 1 m/S 572 mmHg 85%
    23:00 +12°C° 0 mm 1 m/S 571 mmHg 83%

    übermorgen, 24 November, Sonntag

    Zeit Temperatur Niederschläge Wind Luftdruck Luftfeuchtigkeit
    00:00 +11°C° 0 mm 1 m/S 571 mmHg 83%
    01:00 +11°C° 0 mm 1 m/S 570 mmHg 83%
    02:00 +10°C° 0 mm 1 m/S 570 mmHg 84%
    03:00 +10°C° 0 mm 1 m/S 570 mmHg 83%
    04:00 +10°C° 0 mm 1 m/S 570 mmHg 83%
    05:00 +9°C° 0 mm 1 m/S 570 mmHg 83%
    06:00 +10°C° 0 mm 0 m/S 571 mmHg 76%
    07:00 +11°C° 0 mm 0 m/S 572 mmHg 70%
    08:00 +13°C° 0 mm 0 m/S 573 mmHg 63%
    09:00 +15°C° 0 mm 0 m/S 574 mmHg 56%
    10:00 +17°C° 0 mm 0 m/S 574 mmHg 49%
    11:00 +20°C° 0 mm 1 m/S 575 mmHg 41%
    12:00 +21°C° 0 mm 1 m/S 574 mmHg 39%
    13:00 +22°C° 0 mm 1 m/S 574 mmHg 36%
    14:00 +22°C° 0 mm 1 m/S 573 mmHg 34%
    15:00 +20°C° 0 mm 2 m/S 573 mmHg 44%
    16:00 +18°C° 0 mm 2 m/S 572 mmHg 55%
    17:00 +16°C° 0 mm 2 m/S 571 mmHg 65%
    18:00 +15°C° 0 mm 2 m/S 571 mmHg 73%
    19:00 +15°C° 0 mm 1 m/S 571 mmHg 80%
    20:00 +14°C° 0 mm 1 m/S 571 mmHg 87%
    21:00 +14°C° 0 mm 1 m/S 571 mmHg 86%
    22:00 +13°C° 0 mm 1 m/S 571 mmHg 85%
    23:00 +13°C° 0 mm 1 m/S 570 mmHg 83%

    25 November, Montag

    Zeit Temperatur Niederschläge Wind Luftdruck Luftfeuchtigkeit
    00:00 +13°C° 0 mm 1 m/S 570 mmHg 83%
    01:00 +13°C° 0 mm 1 m/S 569 mmHg 82%
    02:00 +13°C° 0 mm 1 m/S 569 mmHg 81%
    03:00 +12°C° 0 mm 1 m/S 569 mmHg 81%
    04:00 +12°C° 0 mm 1 m/S 569 mmHg 80%
    05:00 +12°C° 0 mm 1 m/S 569 mmHg 80%
    06:00 +14°C° 0 mm 1 m/S 570 mmHg 71%
    07:00 +15°C° 0 mm 1 m/S 571 mmHg 63%
    08:00 +18°C° 0 mm 1 m/S 572 mmHg 55%
    09:00 +20°C° 0 mm 1 m/S 572 mmHg 50%
    10:00 +20°C° 0 mm 2 m/S 572 mmHg 45%
    11:00 +21°C° 0 mm 2 m/S 573 mmHg 41%
    12:00 +23°C° 0 mm 2 m/S 572 mmHg 39%
    13:00 +23°C° 0 mm 2 m/S 572 mmHg 37%
    14:00 +23°C° 0 mm 2 m/S 572 mmHg 35%
    15:00 +21°C° 0 mm 2 m/S 571 mmHg 42%
    16:00 +19°C° 0 mm 2 m/S 571 mmHg 50%
    17:00 +18°C° 0 mm 2 m/S 570 mmHg 57%
    18:00 +17°C° 0 mm 2 m/S 570 mmHg 62%
    19:00 +16°C° 0 mm 2 m/S 570 mmHg 67%
    20:00 +15°C° 0 mm 2 m/S 570 mmHg 73%
    21:00 +15°C° 0 mm 1 m/S 570 mmHg 73%
    22:00 +15°C° 0 mm 1 m/S 570 mmHg 72%
    23:00 +14°C° 0 mm 1 m/S 569 mmHg 72%

    26 November, Dienstag

    Zeit Temperatur Niederschläge Wind Luftdruck Luftfeuchtigkeit
    00:00 +14°C° 0 mm 1 m/S 569 mmHg 74%
    01:00 +14°C° 0 mm 1 m/S 569 mmHg 77%
    02:00 +13°C° 0 mm 1 m/S 568 mmHg 79%
    03:00 +13°C° 0 mm 1 m/S 568 mmHg 80%
    04:00 +13°C° 0 mm 1 m/S 568 mmHg 81%
    05:00 +12°C° 0 mm 1 m/S 568 mmHg 82%
    06:00 +14°C° 0 mm 1 m/S 569 mmHg 75%
    07:00 +16°C° 0 mm 1 m/S 570 mmHg 68%
    08:00 +18°C° 0 mm 1 m/S 572 mmHg 61%
    09:00 +20°C° 0 mm 1 m/S 572 mmHg 54%
    10:00 +22°C° 0 mm 1 m/S 572 mmHg 47%
    11:00 +23°C° 0 mm 1 m/S 573 mmHg 41%
    12:00 +24°C° 0 mm 1 m/S 573 mmHg 40%
    13:00 +24°C° 0 mm 2 m/S 572 mmHg 38%
    14:00 +24°C° 0 mm 2 m/S 572 mmHg 37%
    15:00 +23°C° 0.1 mm 2 m/S 571 mmHg 45%
    16:00 +20°C° 0.1 mm 2 m/S 571 mmHg 53%
    17:00 +18°C° 0.1 mm 2 m/S 570 mmHg 61%
    18:00 +17°C° 0 mm 2 m/S 570 mmHg 65%
    19:00 +17°C° 0 mm 2 m/S 571 mmHg 68%
    20:00 +16°C° 0 mm 1 m/S 571 mmHg 71%
    21:00 +15°C° 0 mm 1 m/S 570 mmHg 71%
    22:00 +15°C° 0 mm 1 m/S 570 mmHg 71%
    23:00 +14°C° 0 mm 1 m/S 570 mmHg 70%

    27 November, Mittwoch

    Zeit Temperatur Niederschläge Wind Luftdruck Luftfeuchtigkeit
    00:00 +14°C° 0 mm 1 m/S 570 mmHg 71%
    01:00 +14°C° 0 mm 1 m/S 570 mmHg 73%
    02:00 +13°C° 0 mm 1 m/S 569 mmHg 74%
    03:00 +13°C° 0 mm 1 m/S 569 mmHg 74%
    04:00 +12°C° 0 mm 1 m/S 569 mmHg 75%
    05:00 +12°C° 0 mm 1 m/S 569 mmHg 76%
    06:00 +14°C° 0 mm 1 m/S 571 mmHg 69%
    07:00 +15°C° 0 mm 1 m/S 572 mmHg 62%
    08:00 +18°C° 0 mm 1 m/S 573 mmHg 56%
    09:00 +20°C° 0 mm 1 m/S 574 mmHg 49%
    10:00 +21°C° 0 mm 1 m/S 575 mmHg 42%
    11:00 +23°C° 0 mm 1 m/S 575 mmHg 36%
    12:00 +23°C° 0 mm 1 m/S 575 mmHg 34%
    13:00 +24°C° 0 mm 2 m/S 574 mmHg 33%
    14:00 +24°C° 0 mm 2 m/S 574 mmHg 32%
    15:00 +21°C° 0 mm 2 m/S 573 mmHg 43%
    16:00 +19°C° 0 mm 2 m/S 573 mmHg 53%
    17:00 +17°C° 0 mm 2 m/S 572 mmHg 64%
    18:00 +16°C° 0 mm 2 m/S 572 mmHg 71%
    19:00 +16°C° 0 mm 2 m/S 572 mmHg 78%
    20:00 +15°C° 0 mm 1 m/S 573 mmHg 85%
    21:00 +14°C° 0 mm 1 m/S 572 mmHg 85%
    22:00 +14°C° 0 mm 1 m/S 572 mmHg 85%
    23:00 +13°C° 0 mm 1 m/S 572 mmHg 85%
    Mehr zeigen